(°C)
(°C)
-4°
-5°
-5°
-5°
-5°
-6°
-6°
E
E
E
E
E
E
E
(km/h)
27-41
27-41
26-41
26-41
27-42
27-42
28-39
(mm)
0
0
0
0
0
0
0
(%)
0
0
0
0
0
11
13

Elevación del sol

/ -40.3°
sun-icon
UV 1
07:05
19:04
Gibosa menguante (253°)
21:43
13:55

METAR a 51.02°N 71.47°E (UACC)

Hora Condiciones Temperatura/
Punto de condensación
Viento Visibilidad Tiempo Nubes Presión Cambiar Bruto
VFR 5°C / -6°C 90º 17kt >10km - Clouds and Visibility OK 1014 No Significant change. Runway 04: Clear and dry, , friction coefficient 0.70. UACC 261800Z 09009MPS CAVOK 05/M06 Q1014 R04/0///70 NOSIG RMK QFE729/0973
VFR 5°C / -6°C 90º 16kt >10km - Clouds and Visibility OK 1015 No Significant change. Runway 04: Clear and dry, , friction coefficient 0.70. UACC 261730Z 09008MPS CAVOK 05/M06 Q1015 R04/0///70 NOSIG RMK QFE730/0973
VFR 6°C / -6°C 90º 16kt >10km - Clouds and Visibility OK 1015 No Significant change. Runway 04: Clear and dry, , friction coefficient 0.70. UACC 261700Z 09008MPS CAVOK 06/M06 Q1015 R04/0///70 NOSIG RMK QFE730/0973
VFR 6°C / -6°C 90º 16kt >10km - Clouds and Visibility OK 1015 No Significant change. Runway 04: Clear and dry, , friction coefficient 0.70. UACC 261630Z 09008MPS CAVOK 06/M06 Q1015 R04/0///70 NOSIG RMK QFE730/0973
VFR 6°C / -6°C 90º 16kt >10km - Clouds and Visibility OK 1015 No Significant change. Runway 04: Clear and dry, , friction coefficient 0.70. UACC 261600Z 09008MPS CAVOK 06/M06 Q1015 R04/0///70 NOSIG RMK QFE730/0973
VFR 7°C / -7°C 90º 17kt >10km - Clouds and Visibility OK 1015 No Significant change. Runway 04: Clear and dry, , friction coefficient 0.70. UACC 261530Z 09009MPS CAVOK 07/M07 Q1015 R04/0///70 NOSIG RMK QFE730/0974
VFR 8°C / -7°C 90º 19kt >10km - Clouds and Visibility OK 1015 No Significant change. Runway 04: Clear and dry, , friction coefficient 0.70. UACC 261500Z 09010MPS CAVOK 08/M07 Q1015 R04/0///70 NOSIG RMK QFE730/0974
VFR 8°C / -7°C 90º 19kt >10km - Clouds and Visibility OK 1016 No Significant change. Runway 04: Clear and dry, , friction coefficient 0.70. UACC 261430Z 09010MPS CAVOK 08/M07 Q1016 R04/0///70 NOSIG RMK QFE730/0974
VFR 8°C / -6°C 90º 17kt >10km - Clouds and Visibility OK 1016 No Significant change. Runway 04: Clear and dry, , friction coefficient 0.70. UACC 261400Z 09009MPS CAVOK 08/M06 Q1016 R04/0///70 NOSIG RMK QFE730/0974
VFR 8°C / -4°C 90º 16kt >10km - Clouds and Visibility OK 1016 No Significant change. Runway 04: Clear and dry, , friction coefficient 0.70. UACC 261330Z 09008MPS CAVOK 08/M04 Q1016 R04/0///70 NOSIG RMK QFE731/0974
VFR 9°C / -4°C 90º 17kt >10km - Clouds and Visibility OK 1016 No Significant change. Runway 04: Clear and dry, , friction coefficient 0.70. UACC 261300Z 09009MPS CAVOK 09/M04 Q1016 R04/0///70 NOSIG RMK QFE731/0974
VFR 10°C / -2°C 90º 19kt >10km - Clouds and Visibility OK 1016 No Significant change. Runway 04: Clear and dry, , friction coefficient 0.70. UACC 261230Z 09010MPS CAVOK 10/M02 Q1016 R04/0///70 NOSIG RMK QFE731/0975
VFR 11°C / -1°C 100º 16kt >10km - Clouds and Visibility OK 1017 No Significant change. Runway 04: Clear and dry, , friction coefficient 0.70. UACC 261200Z 10008MPS CAVOK 11/M01 Q1017 R04/0///70 NOSIG RMK QFE731/0975
VFR 11°C / -1°C 110º 16kt >10km - Clouds and Visibility OK 1017 No Significant change. Runway 04: Clear and dry, , friction coefficient 0.70. UACC 261130Z 11008MPS CAVOK 11/M01 Q1017 R04/0///70 NOSIG RMK QFE731/0975
VFR 11°C / -1°C 100º 19kt >10km - Clouds and Visibility OK 1017 No Significant change. Runway 04: Clear and dry, , friction coefficient 0.70. UACC 261100Z 10010MPS CAVOK 11/M01 Q1017 R04/0///70 NOSIG RMK QFE731/0975
VFR 12°C / -1°C 90º 17kt >10km - Clouds and Visibility OK 1017 No Significant change. Runway 04: Clear and dry, , friction coefficient 0.70. UACC 261030Z 09009MPS CAVOK 12/M01 Q1017 R04/0///70 NOSIG RMK QFE731/0975
VFR 12°C / -1°C 90º 16kt >10km - Clouds and Visibility OK 1017 No Significant change. Runway 04: Clear and dry, , friction coefficient 0.70. UACC 261000Z 09008MPS CAVOK 12/M01 Q1017 R04/0///70 NOSIG RMK QFE732/0976
VFR 12°C / -1°C 90º 16kt >10km - Clouds and Visibility OK 1018 No Significant change. Runway 04: Clear and dry, , friction coefficient 0.70. UACC 260930Z 09008MPS CAVOK 12/M01 Q1018 R04/0///70 NOSIG RMK QFE732/0976
VFR 12°C / 0°C 90º 19kt >10km - Clouds and Visibility OK 1017 No Significant change. Runway 04: Clear and dry, , friction coefficient 0.70. UACC 260900Z 09010MPS CAVOK 12/M00 Q1017 R04/0///70 NOSIG RMK QFE731/0975
VFR 13°C / 0°C 100º 16kt >10km - Clouds and Visibility OK 1017 No Significant change. Runway 04: Clear and dry, , friction coefficient 0.70. UACC 260830Z 10008MPS CAVOK 13/M00 Q1017 R04/0///70 NOSIG RMK QFE732/0976
VFR 13°C / 0°C 100º 16kt >10km - Clouds and Visibility OK 1018 No Significant change. Runway 04: Clear and dry, , friction coefficient 0.70. UACC 260800Z 10008MPS CAVOK 13/M00 Q1018 R04/0///70 NOSIG RMK QFE732/0976
VFR 13°C / -1°C 90º 17kt >10km - Clouds and Visibility OK 1018 No Significant change. Runway 04: Clear and dry, , friction coefficient 0.70. UACC 260730Z 09009MPS CAVOK 13/M01 Q1018 R04/0///70 NOSIG RMK QFE732/0976
VFR 13°C / 0°C 90º 17kt >10km - Clouds and Visibility OK 1018 No Significant change. Runway 04: Clear and dry, , friction coefficient 0.70. UACC 260700Z 09009MPS CAVOK 13/M00 Q1018 R04/0///70 NOSIG RMK QFE732/0976
VFR 13°C / 0°C 100º 16kt >10km - Clouds and Visibility OK 1018 No Significant change. Runway 04: Clear and dry, , friction coefficient 0.70. UACC 260630Z 10008MPS CAVOK 13/M00 Q1018 R04/0///70 NOSIG RMK QFE732/0976

VFR

5°C / -6°C

[Más]
Viento 90º 17kt
Visibilidad >10km
Tiempo -
Nubes Clouds and Visibility OK
Presión 1014
Cambiar No Significant change. Runway 04: Clear and dry, , friction coefficient 0.70.
Bruto UACC 261800Z 09009MPS CAVOK 05/M06 Q1014 R04/0///70 NOSIG RMK QFE729/0973

VFR

5°C / -6°C

[Más]
Viento 90º 16kt
Visibilidad >10km
Tiempo -
Nubes Clouds and Visibility OK
Presión 1015
Cambiar No Significant change. Runway 04: Clear and dry, , friction coefficient 0.70.
Bruto UACC 261730Z 09008MPS CAVOK 05/M06 Q1015 R04/0///70 NOSIG RMK QFE730/0973

VFR

6°C / -6°C

[Más]
Viento 90º 16kt
Visibilidad >10km
Tiempo -
Nubes Clouds and Visibility OK
Presión 1015
Cambiar No Significant change. Runway 04: Clear and dry, , friction coefficient 0.70.
Bruto UACC 261700Z 09008MPS CAVOK 06/M06 Q1015 R04/0///70 NOSIG RMK QFE730/0973

VFR

6°C / -6°C

[Más]
Viento 90º 16kt
Visibilidad >10km
Tiempo -
Nubes Clouds and Visibility OK
Presión 1015
Cambiar No Significant change. Runway 04: Clear and dry, , friction coefficient 0.70.
Bruto UACC 261630Z 09008MPS CAVOK 06/M06 Q1015 R04/0///70 NOSIG RMK QFE730/0973

VFR

6°C / -6°C

[Más]
Viento 90º 16kt
Visibilidad >10km
Tiempo -
Nubes Clouds and Visibility OK
Presión 1015
Cambiar No Significant change. Runway 04: Clear and dry, , friction coefficient 0.70.
Bruto UACC 261600Z 09008MPS CAVOK 06/M06 Q1015 R04/0///70 NOSIG RMK QFE730/0973

VFR

7°C / -7°C

[Más]
Viento 90º 17kt
Visibilidad >10km
Tiempo -
Nubes Clouds and Visibility OK
Presión 1015
Cambiar No Significant change. Runway 04: Clear and dry, , friction coefficient 0.70.
Bruto UACC 261530Z 09009MPS CAVOK 07/M07 Q1015 R04/0///70 NOSIG RMK QFE730/0974

VFR

8°C / -7°C

[Más]
Viento 90º 19kt
Visibilidad >10km
Tiempo -
Nubes Clouds and Visibility OK
Presión 1015
Cambiar No Significant change. Runway 04: Clear and dry, , friction coefficient 0.70.
Bruto UACC 261500Z 09010MPS CAVOK 08/M07 Q1015 R04/0///70 NOSIG RMK QFE730/0974

VFR

8°C / -7°C

[Más]
Viento 90º 19kt
Visibilidad >10km
Tiempo -
Nubes Clouds and Visibility OK
Presión 1016
Cambiar No Significant change. Runway 04: Clear and dry, , friction coefficient 0.70.
Bruto UACC 261430Z 09010MPS CAVOK 08/M07 Q1016 R04/0///70 NOSIG RMK QFE730/0974

VFR

8°C / -6°C

[Más]
Viento 90º 17kt
Visibilidad >10km
Tiempo -
Nubes Clouds and Visibility OK
Presión 1016
Cambiar No Significant change. Runway 04: Clear and dry, , friction coefficient 0.70.
Bruto UACC 261400Z 09009MPS CAVOK 08/M06 Q1016 R04/0///70 NOSIG RMK QFE730/0974

VFR

8°C / -4°C

[Más]
Viento 90º 16kt
Visibilidad >10km
Tiempo -
Nubes Clouds and Visibility OK
Presión 1016
Cambiar No Significant change. Runway 04: Clear and dry, , friction coefficient 0.70.
Bruto UACC 261330Z 09008MPS CAVOK 08/M04 Q1016 R04/0///70 NOSIG RMK QFE731/0974

VFR

9°C / -4°C

[Más]
Viento 90º 17kt
Visibilidad >10km
Tiempo -
Nubes Clouds and Visibility OK
Presión 1016
Cambiar No Significant change. Runway 04: Clear and dry, , friction coefficient 0.70.
Bruto UACC 261300Z 09009MPS CAVOK 09/M04 Q1016 R04/0///70 NOSIG RMK QFE731/0974

VFR

10°C / -2°C

[Más]
Viento 90º 19kt
Visibilidad >10km
Tiempo -
Nubes Clouds and Visibility OK
Presión 1016
Cambiar No Significant change. Runway 04: Clear and dry, , friction coefficient 0.70.
Bruto UACC 261230Z 09010MPS CAVOK 10/M02 Q1016 R04/0///70 NOSIG RMK QFE731/0975

VFR

11°C / -1°C

[Más]
Viento 100º 16kt
Visibilidad >10km
Tiempo -
Nubes Clouds and Visibility OK
Presión 1017
Cambiar No Significant change. Runway 04: Clear and dry, , friction coefficient 0.70.
Bruto UACC 261200Z 10008MPS CAVOK 11/M01 Q1017 R04/0///70 NOSIG RMK QFE731/0975

VFR

11°C / -1°C

[Más]
Viento 110º 16kt
Visibilidad >10km
Tiempo -
Nubes Clouds and Visibility OK
Presión 1017
Cambiar No Significant change. Runway 04: Clear and dry, , friction coefficient 0.70.
Bruto UACC 261130Z 11008MPS CAVOK 11/M01 Q1017 R04/0///70 NOSIG RMK QFE731/0975

VFR

11°C / -1°C

[Más]
Viento 100º 19kt
Visibilidad >10km
Tiempo -
Nubes Clouds and Visibility OK
Presión 1017
Cambiar No Significant change. Runway 04: Clear and dry, , friction coefficient 0.70.
Bruto UACC 261100Z 10010MPS CAVOK 11/M01 Q1017 R04/0///70 NOSIG RMK QFE731/0975

VFR

12°C / -1°C

[Más]
Viento 90º 17kt
Visibilidad >10km
Tiempo -
Nubes Clouds and Visibility OK
Presión 1017
Cambiar No Significant change. Runway 04: Clear and dry, , friction coefficient 0.70.
Bruto UACC 261030Z 09009MPS CAVOK 12/M01 Q1017 R04/0///70 NOSIG RMK QFE731/0975

VFR

12°C / -1°C

[Más]
Viento 90º 16kt
Visibilidad >10km
Tiempo -
Nubes Clouds and Visibility OK
Presión 1017
Cambiar No Significant change. Runway 04: Clear and dry, , friction coefficient 0.70.
Bruto UACC 261000Z 09008MPS CAVOK 12/M01 Q1017 R04/0///70 NOSIG RMK QFE732/0976

VFR

12°C / -1°C

[Más]
Viento 90º 16kt
Visibilidad >10km
Tiempo -
Nubes Clouds and Visibility OK
Presión 1018
Cambiar No Significant change. Runway 04: Clear and dry, , friction coefficient 0.70.
Bruto UACC 260930Z 09008MPS CAVOK 12/M01 Q1018 R04/0///70 NOSIG RMK QFE732/0976

VFR

12°C / 0°C

[Más]
Viento 90º 19kt
Visibilidad >10km
Tiempo -
Nubes Clouds and Visibility OK
Presión 1017
Cambiar No Significant change. Runway 04: Clear and dry, , friction coefficient 0.70.
Bruto UACC 260900Z 09010MPS CAVOK 12/M00 Q1017 R04/0///70 NOSIG RMK QFE731/0975

VFR

13°C / 0°C

[Más]
Viento 100º 16kt
Visibilidad >10km
Tiempo -
Nubes Clouds and Visibility OK
Presión 1017
Cambiar No Significant change. Runway 04: Clear and dry, , friction coefficient 0.70.
Bruto UACC 260830Z 10008MPS CAVOK 13/M00 Q1017 R04/0///70 NOSIG RMK QFE732/0976

VFR

13°C / 0°C

[Más]
Viento 100º 16kt
Visibilidad >10km
Tiempo -
Nubes Clouds and Visibility OK
Presión 1018
Cambiar No Significant change. Runway 04: Clear and dry, , friction coefficient 0.70.
Bruto UACC 260800Z 10008MPS CAVOK 13/M00 Q1018 R04/0///70 NOSIG RMK QFE732/0976

VFR

13°C / -1°C

[Más]
Viento 90º 17kt
Visibilidad >10km
Tiempo -
Nubes Clouds and Visibility OK
Presión 1018
Cambiar No Significant change. Runway 04: Clear and dry, , friction coefficient 0.70.
Bruto UACC 260730Z 09009MPS CAVOK 13/M01 Q1018 R04/0///70 NOSIG RMK QFE732/0976

VFR

13°C / 0°C

[Más]
Viento 90º 17kt
Visibilidad >10km
Tiempo -
Nubes Clouds and Visibility OK
Presión 1018
Cambiar No Significant change. Runway 04: Clear and dry, , friction coefficient 0.70.
Bruto UACC 260700Z 09009MPS CAVOK 13/M00 Q1018 R04/0///70 NOSIG RMK QFE732/0976

VFR

13°C / 0°C

[Más]
Viento 100º 16kt
Visibilidad >10km
Tiempo -
Nubes Clouds and Visibility OK
Presión 1018
Cambiar No Significant change. Runway 04: Clear and dry, , friction coefficient 0.70.
Bruto UACC 260630Z 10008MPS CAVOK 13/M00 Q1018 R04/0///70 NOSIG RMK QFE732/0976

TAF a 51.02°N 71.47°E (UACC)

From till


Maximum Temperature 7ºC on . Minimum Temperature -1ºC on .
From till Wind 80º 16kt. Gust 25kt. Visibility 10km or more. Scattered Clouds 2000ft. Broken Clouds 3000ft.
Temporarly from till Wind 90º 19kt. Gust 29kt.
Temporarly from till Wind 90º 25kt. Gust 35kt. Visibility 3100m. Light Showers Rain Light Showers Snow . Broken Clouds 1500ft.
Temporarly from till Wind 90º 29kt. Gust 39kt. Visibility 3100m. Light Showers Rain . Broken Clouds 1500ft.

Bruto: TAF UACC 261700Z 2618/2718 08008G13MPS 9999 SCT020CB BKN030 TX07/2612Z TNM01/2701Z TEMPO 2618/2622 09010G15MPS TEMPO 2622/2706 09013G18MPS 3100 -SHRASN BKN015CB TEMPO 2706/2718 09015G20MPS 3100 -SHRA BKN015CB

Imágenes actuales de satélite y lluvia para 51.02°N 71.47°E

El marcador de lugar se coloca en 51.02°N 71.47°E. [Más]

La imagen de satélite en tiempo real se aprovecha de la combinación de bandas de la luz visible y de la luz infrarrojo. Como se puede detectar cambios de temperaturas atreves de la banda infrarrojo, la imagen no está escura de noche. No obstante, la niebla y las nubes bajas son apenas visibles en las imágenes infrarrojo como las diferencias de temperaturas entre el suelo y la niebla son muy pequeñas. Por eso son casi invisibles durante la noche. Las imágenes de satélite del Meteosat (Europa) son actualizados en tiempo real cada 5 minutos. Las imágenes del GOES-16/GOES-17 (América del Norte y América del Sur) y Himawari (Asia) son actualizados cada 10 minutos.

Copyright 2021 EUMETSAT / meteoblue. / Copyright 2021 meteoblue

Radar y precipitación nowcast para 51.02°N 71.47°E

llovizna
Leve
Moderado
Fuerte
Muy fuerte
Granizo

El marcador de lugar se coloca en 51.02°N 71.47°E. Esta animación muestra lo radar de precipitaciones hasta la última hora, así como la 1h previsión. Las lloviznas o las nevadas ligeras pueden ser invisibles para el radar. La intensidad de la precipitación está codificada por colores, que van del azul claro al naranja.